iso_date,epoch_date,Year,Hour,Min,DOY,POS_DOY,Lat,Lon,BP,Ts,Ta,has_bp,has_ts,has_ta,BuoyID,Buoy_Type,Buoy_Owner,Logistics,Hemisphere
2021-08-12T00:08:55Z,1628726936,2021,0,9,224.0062,224.0062,68.7071,-52.87861,1021.24,0.0,-999.0,yes,yes,no,300434065063990,IceCadet,NAL-USIABP,ICE-PPR<br>DiskoBay,North
2021-08-12T14:21:59Z,1628778119,2021,14,22,224.5986,224.5986,68.70691,-52.87932,1022.17,0.0,-999.0,yes,yes,no,300434065063990,IceCadet,NAL-USIABP,ICE-PPR<br>DiskoBay,North
2021-08-12T15:36:00Z,1628782560,2021,15,36,224.65,224.65,68.7068,-52.87937,1020.15,0.0,-999.0,yes,yes,no,300434065063990,IceCadet,NAL-USIABP,ICE-PPR<br>DiskoBay,North
2021-08-17T12:12:57Z,1629202378,2021,12,13,229.509,229.509,69.40696,-51.45449,1009.68,0.0,-999.0,yes,yes,no,300434065063990,IceCadet,NAL-USIABP,ICE-PPR<br>DiskoBay,North
2021-08-17T12:30:57Z,1629203458,2021,12,31,229.5215,229.5215,69.40691,-51.45984,1019.14,0.0,-999.0,yes,yes,no,300434065063990,IceCadet,NAL-USIABP,ICE-PPR<br>DiskoBay,North
2021-08-17T13:35:02Z,1629207302,2021,13,35,229.566,229.566,69.4025,-51.45374,1000.3,0.0,-999.0,yes,yes,no,300434065063990,IceCadet,NAL-USIABP,ICE-PPR<br>DiskoBay,North
2021-08-17T14:33:56Z,1629210836,2021,14,34,229.6069,229.6069,69.40247,-51.45381,997.59,0.0,-999.0,yes,yes,no,300434065063990,IceCadet,NAL-USIABP,ICE-PPR<br>DiskoBay,North
2021-08-17T15:34:59Z,1629214500,2021,15,35,229.6493,229.6493,69.4025,-51.45394,999.25,0.0,-999.0,yes,yes,no,300434065063990,IceCadet,NAL-USIABP,ICE-PPR<br>DiskoBay,North
2021-08-17T16:35:02Z,1629218102,2021,16,35,229.691,229.691,69.40253,-51.45392,1002.93,0.0,-999.0,yes,yes,no,300434065063990,IceCadet,NAL-USIABP,ICE-PPR<br>DiskoBay,North
2021-08-17T17:34:56Z,1629221697,2021,17,35,229.7326,229.7326,69.4026,-51.45406,1004.84,0.0,-999.0,yes,yes,no,300434065063990,IceCadet,NAL-USIABP,ICE-PPR<br>DiskoBay,North
2021-08-17T18:33:59Z,1629225239,2021,18,34,229.7736,229.7736,69.40288,-51.45464,1005.06,0.0,-999.0,yes,yes,no,300434065063990,IceCadet,NAL-USIABP,ICE-PPR<br>DiskoBay,North
2021-08-17T19:35:02Z,1629228902,2021,19,35,229.816,229.816,69.40289,-51.45481,1006.41,0.0,-999.0,yes,yes,no,300434065063990,IceCadet,NAL-USIABP,ICE-PPR<br>DiskoBay,North
2021-08-17T20:34:56Z,1629232497,2021,20,35,229.8576,229.8576,69.40295,-51.45489,1008.46,0.0,-999.0,yes,yes,no,300434065063990,IceCadet,NAL-USIABP,ICE-PPR<br>DiskoBay,North
2021-08-17T21:33:59Z,1629236039,2021,21,34,229.8986,229.8986,69.40295,-51.455,1006.49,0.0,-999.0,yes,yes,no,300434065063990,IceCadet,NAL-USIABP,ICE-PPR<br>DiskoBay,North
2021-08-17T22:34:01Z,1629239642,2021,22,34,229.9403,229.9403,69.40323,-51.455,1003.06,0.0,-999.0,yes,yes,no,300434065063990,IceCadet,NAL-USIABP,ICE-PPR<br>DiskoBay,North
2021-08-17T23:33:56Z,1629243236,2021,23,34,229.9819,229.9819,69.40301,-51.45538,999.03,0.0,-999.0,yes,yes,no,300434065063990,IceCadet,NAL-USIABP,ICE-PPR<br>DiskoBay,North
2021-08-18T00:34:59Z,1629246900,2021,0,35,230.0243,230.0243,69.40321,-51.45576,993.42,0.0,-999.0,yes,yes,no,300434065063990,IceCadet,NAL-USIABP,ICE-PPR<br>DiskoBay,North
2021-08-18T01:34:01Z,1629250442,2021,1,34,230.0653,230.0653,69.40297,-51.45579,990.21,0.0,-999.0,yes,yes,no,300434065063990,IceCadet,NAL-USIABP,ICE-PPR<br>DiskoBay,North
2021-08-18T02:34:56Z,1629254097,2021,2,35,230.1076,230.1076,69.40309,-51.45589,987.79,0.0,-999.0,yes,yes,no,300434065063990,IceCadet,NAL-USIABP,ICE-PPR<br>DiskoBay,North
2021-08-18T03:33:59Z,1629257639,2021,3,34,230.1486,230.1486,69.40314,-51.45564,990.1,0.0,-999.0,yes,yes,no,300434065063990,IceCadet,NAL-USIABP,ICE-PPR<br>DiskoBay,North
2021-08-18T04:34:01Z,1629261242,2021,4,34,230.1903,230.1903,69.40332,-51.45617,988.25,0.0,-999.0,yes,yes,no,300434065063990,IceCadet,NAL-USIABP,ICE-PPR<br>DiskoBay,North
2021-08-18T05:33:56Z,1629264836,2021,5,34,230.2319,230.2319,69.40308,-51.45567,989.81,0.0,-999.0,yes,yes,no,300434065063990,IceCadet,NAL-USIABP,ICE-PPR<br>DiskoBay,North
2021-08-18T06:33:59Z,1629268439,2021,6,34,230.2736,230.2736,69.40311,-51.45574,989.87,0.0,-999.0,yes,yes,no,300434065063990,IceCadet,NAL-USIABP,ICE-PPR<br>DiskoBay,North
2021-08-18T07:34:01Z,1629272042,2021,7,34,230.3153,230.3153,69.40351,-51.45541,992.63,0.0,-999.0,yes,yes,no,300434065063990,IceCadet,NAL-USIABP,ICE-PPR<br>DiskoBay,North
2021-08-18T08:33:56Z,1629275636,2021,8,34,230.3569,230.3569,69.40425,-51.45741,994.38,0.0,-999.0,yes,yes,no,300434065063990,IceCadet,NAL-USIABP,ICE-PPR<br>DiskoBay,North
2021-08-18T09:33:59Z,1629279239,2021,9,34,230.3986,230.3986,69.40546,-51.46038,995.24,0.0,-999.0,yes,yes,no,300434065063990,IceCadet,NAL-USIABP,ICE-PPR<br>DiskoBay,North
2021-08-18T10:34:01Z,1629282842,2021,10,34,230.4403,230.4403,69.405,-51.46026,995.44,0.0,-999.0,yes,yes,no,300434065063990,IceCadet,NAL-USIABP,ICE-PPR<br>DiskoBay,North
2021-08-18T11:33:56Z,1629286436,2021,11,34,230.4819,230.4819,69.40508,-51.46092,996.13,0.0,-999.0,yes,yes,no,300434065063990,IceCadet,NAL-USIABP,ICE-PPR<br>DiskoBay,North
2021-08-18T12:33:59Z,1629290039,2021,12,34,230.5236,230.5236,69.405,-51.46093,997.74,0.0,-999.0,yes,yes,no,300434065063990,IceCadet,NAL-USIABP,ICE-PPR<br>DiskoBay,North
2021-08-18T13:34:01Z,1629293642,2021,13,34,230.5653,230.5653,69.40485,-51.46049,1002.04,0.0,-999.0,yes,yes,no,300434065063990,IceCadet,NAL-USIABP,ICE-PPR<br>DiskoBay,North
2021-08-18T14:33:56Z,1629297236,2021,14,34,230.6069,230.6069,69.40505,-51.46115,1009.16,0.0,-999.0,yes,yes,no,300434065063990,IceCadet,NAL-USIABP,ICE-PPR<br>DiskoBay,North
2021-08-18T15:34:59Z,1629300900,2021,15,35,230.6493,230.6493,69.40509,-51.46086,1006.53,0.0,-999.0,yes,yes,no,300434065063990,IceCadet,NAL-USIABP,ICE-PPR<br>DiskoBay,North
2021-08-18T16:34:01Z,1629304442,2021,16,34,230.6903,230.6903,69.40519,-51.46011,1005.93,0.0,-999.0,yes,yes,no,300434065063990,IceCadet,NAL-USIABP,ICE-PPR<br>DiskoBay,North
2021-08-18T17:34:56Z,1629308097,2021,17,35,230.7326,230.7326,69.40531,-51.46103,1004.1,0.0,-999.0,yes,yes,no,300434065063990,IceCadet,NAL-USIABP,ICE-PPR<br>DiskoBay,North
2021-08-18T18:33:59Z,1629311639,2021,18,34,230.7736,230.7736,69.40524,-51.46136,1001.66,0.0,-999.0,yes,yes,no,300434065063990,IceCadet,NAL-USIABP,ICE-PPR<br>DiskoBay,North
2021-08-18T19:34:01Z,1629315242,2021,19,34,230.8153,230.8153,69.40524,-51.46108,999.13,0.0,-999.0,yes,yes,no,300434065063990,IceCadet,NAL-USIABP,ICE-PPR<br>DiskoBay,North
2021-08-18T20:33:56Z,1629318836,2021,20,34,230.8569,230.8569,69.40543,-51.46065,997.38,0.0,-999.0,yes,yes,no,300434065063990,IceCadet,NAL-USIABP,ICE-PPR<br>DiskoBay,North
2021-08-18T21:34:59Z,1629322500,2021,21,35,230.8993,230.8993,69.40721,-51.46535,997.07,0.0,-999.0,yes,yes,no,300434065063990,IceCadet,NAL-USIABP,ICE-PPR<br>DiskoBay,North
2021-08-18T22:34:01Z,1629326042,2021,22,34,230.9403,230.9403,69.41061,-51.47302,995.54,0.0,-999.0,yes,yes,no,300434065063990,IceCadet,NAL-USIABP,ICE-PPR<br>DiskoBay,North
2021-08-18T23:33:56Z,1629329636,2021,23,34,230.9819,230.9819,69.41306,-51.48373,996.58,0.0,-999.0,yes,yes,no,300434065063990,IceCadet,NAL-USIABP,ICE-PPR<br>DiskoBay,North
2021-08-19T00:34:59Z,1629333300,2021,0,35,231.0243,231.0243,69.41642,-51.49659,996.5,0.0,-999.0,yes,yes,no,300434065063990,IceCadet,NAL-USIABP,ICE-PPR<br>DiskoBay,North
2021-08-19T01:34:01Z,1629336842,2021,1,34,231.0653,231.0653,69.41808,-51.50793,995.56,0.0,-999.0,yes,yes,no,300434065063990,IceCadet,NAL-USIABP,ICE-PPR<br>DiskoBay,North
2021-08-19T02:33:04Z,1629340384,2021,2,33,231.1063,231.1063,69.41941,-51.52165,993.88,0.0,-999.0,yes,yes,no,300434065063990,IceCadet,NAL-USIABP,ICE-PPR<br>DiskoBay,North
2021-08-19T03:33:59Z,1629344039,2021,3,34,231.1486,231.1486,69.41981,-51.53681,992.6,0.0,-999.0,yes,yes,no,300434065063990,IceCadet,NAL-USIABP,ICE-PPR<br>DiskoBay,North
2021-08-19T04:35:02Z,1629347702,2021,4,35,231.191,231.191,69.41986,-51.55114,991.07,0.0,-999.0,yes,yes,no,300434065063990,IceCadet,NAL-USIABP,ICE-PPR<br>DiskoBay,North
2021-08-19T05:34:56Z,1629351297,2021,5,35,231.2326,231.2326,69.41927,-51.56739,990.02,0.0,-999.0,yes,yes,no,300434065063990,IceCadet,NAL-USIABP,ICE-PPR<br>DiskoBay,North
2021-08-19T06:33:59Z,1629354839,2021,6,34,231.2736,231.2736,69.42021,-51.58405,989.93,0.0,-999.0,yes,yes,no,300434065063990,IceCadet,NAL-USIABP,ICE-PPR<br>DiskoBay,North
2021-08-19T07:34:01Z,1629358442,2021,7,34,231.3153,231.3153,69.41984,-51.59891,989.32,0.0,-999.0,yes,yes,no,300434065063990,IceCadet,NAL-USIABP,ICE-PPR<br>DiskoBay,North
2021-08-19T08:33:56Z,1629362036,2021,8,34,231.3569,231.3569,69.42039,-51.61666,990.43,0.0,-999.0,yes,yes,no,300434065063990,IceCadet,NAL-USIABP,ICE-PPR<br>DiskoBay,North
2021-08-19T09:34:59Z,1629365700,2021,9,35,231.3993,231.3993,69.42094,-51.63332,991.28,0.0,-999.0,yes,yes,no,300434065063990,IceCadet,NAL-USIABP,ICE-PPR<br>DiskoBay,North
2021-08-19T10:34:01Z,1629369242,2021,10,34,231.4403,231.4403,69.42248,-51.65015,991.81,0.0,-999.0,yes,yes,no,300434065063990,IceCadet,NAL-USIABP,ICE-PPR<br>DiskoBay,North
2021-08-19T11:33:56Z,1629372836,2021,11,34,231.4819,231.4819,69.42265,-51.66812,994.64,0.0,-999.0,yes,yes,no,300434065063990,IceCadet,NAL-USIABP,ICE-PPR<br>DiskoBay,North
2021-08-19T12:33:59Z,1629376439,2021,12,34,231.5236,231.5236,69.42297,-51.68767,1002.04,0.0,-999.0,yes,yes,no,300434065063990,IceCadet,NAL-USIABP,ICE-PPR<br>DiskoBay,North
2021-08-19T13:34:01Z,1629380042,2021,13,34,231.5653,231.5653,69.42217,-51.70639,1008.04,0.0,-999.0,yes,yes,no,300434065063990,IceCadet,NAL-USIABP,ICE-PPR<br>DiskoBay,North
2021-08-19T14:33:56Z,1629383636,2021,14,34,231.6069,231.6069,69.42142,-51.72335,1011.15,0.0,-999.0,yes,yes,no,300434065063990,IceCadet,NAL-USIABP,ICE-PPR<br>DiskoBay,North
2021-08-19T15:33:59Z,1629387239,2021,15,34,231.6486,231.6486,69.42038,-51.73989,1004.6,0.0,-999.0,yes,yes,no,300434065063990,IceCadet,NAL-USIABP,ICE-PPR<br>DiskoBay,North
2021-08-19T16:34:01Z,1629390842,2021,16,34,231.6903,231.6903,69.42057,-51.75373,1003.58,0.0,-999.0,yes,yes,no,300434065063990,IceCadet,NAL-USIABP,ICE-PPR<br>DiskoBay,North
2021-08-19T17:33:56Z,1629394436,2021,17,34,231.7319,231.7319,69.42069,-51.76688,1004.49,0.0,-999.0,yes,yes,no,300434065063990,IceCadet,NAL-USIABP,ICE-PPR<br>DiskoBay,North
2021-08-19T18:33:59Z,1629398039,2021,18,34,231.7736,231.7736,69.42142,-51.77663,1002.69,0.0,-999.0,yes,yes,no,300434065063990,IceCadet,NAL-USIABP,ICE-PPR<br>DiskoBay,North
2021-08-19T19:34:01Z,1629401642,2021,19,34,231.8153,231.8153,69.42206,-51.78467,998.42,0.0,-999.0,yes,yes,no,300434065063990,IceCadet,NAL-USIABP,ICE-PPR<br>DiskoBay,North
2021-08-19T20:33:56Z,1629405236,2021,20,34,231.8569,231.8569,69.42409,-51.79211,998.3,0.0,-999.0,yes,yes,no,300434065063990,IceCadet,NAL-USIABP,ICE-PPR<br>DiskoBay,North
2021-08-19T21:33:59Z,1629408839,2021,21,34,231.8986,231.8986,69.42652,-51.79709,996.5,0.0,-999.0,yes,yes,no,300434065063990,IceCadet,NAL-USIABP,ICE-PPR<br>DiskoBay,North
2021-08-19T22:34:01Z,1629412442,2021,22,34,231.9403,231.9403,69.42695,-51.80019,993.13,0.0,-999.0,yes,yes,no,300434065063990,IceCadet,NAL-USIABP,ICE-PPR<br>DiskoBay,North
2021-08-19T23:33:56Z,1629416036,2021,23,34,231.9819,231.9819,69.42628,-51.80122,990.66,0.0,-999.0,yes,yes,no,300434065063990,IceCadet,NAL-USIABP,ICE-PPR<br>DiskoBay,North
2021-08-20T00:33:59Z,1629419639,2021,0,34,232.0236,232.0236,69.42627,-51.80174,990.0,0.0,-999.0,yes,yes,no,300434065063990,IceCadet,NAL-USIABP,ICE-PPR<br>DiskoBay,North
2021-08-20T01:34:01Z,1629423242,2021,1,34,232.0653,232.0653,69.42628,-51.80152,988.85,0.0,-999.0,yes,yes,no,300434065063990,IceCadet,NAL-USIABP,ICE-PPR<br>DiskoBay,North
2021-08-20T02:33:56Z,1629426836,2021,2,34,232.1069,232.1069,69.42574,-51.80268,986.51,0.0,-999.0,yes,yes,no,300434065063990,IceCadet,NAL-USIABP,ICE-PPR<br>DiskoBay,North
2021-08-20T03:33:59Z,1629430439,2021,3,34,232.1486,232.1486,69.42578,-51.80283,983.75,0.0,-999.0,yes,yes,no,300434065063990,IceCadet,NAL-USIABP,ICE-PPR<br>DiskoBay,North
2021-08-20T04:34:01Z,1629434042,2021,4,34,232.1903,232.1903,69.42551,-51.80259,983.03,0.0,-999.0,yes,yes,no,300434065063990,IceCadet,NAL-USIABP,ICE-PPR<br>DiskoBay,North
2021-08-20T05:33:56Z,1629437636,2021,5,34,232.2319,232.2319,69.42511,-51.80252,982.24,0.0,-999.0,yes,yes,no,300434065063990,IceCadet,NAL-USIABP,ICE-PPR<br>DiskoBay,North
2021-08-20T06:33:59Z,1629441239,2021,6,34,232.2736,232.2736,69.42486,-51.80249,984.22,0.0,-999.0,yes,yes,no,300434065063990,IceCadet,NAL-USIABP,ICE-PPR<br>DiskoBay,North
2021-08-20T07:34:01Z,1629444842,2021,7,34,232.3153,232.3153,69.42503,-51.80268,988.86,0.0,-999.0,yes,yes,no,300434065063990,IceCadet,NAL-USIABP,ICE-PPR<br>DiskoBay,North
2021-08-20T08:33:04Z,1629448384,2021,8,33,232.3563,232.3563,69.42495,-51.80268,991.19,0.0,-999.0,yes,yes,no,300434065063990,IceCadet,NAL-USIABP,ICE-PPR<br>DiskoBay,North
2021-08-20T09:33:59Z,1629452039,2021,9,34,232.3986,232.3986,69.42502,-51.80248,993.48,0.0,-999.0,yes,yes,no,300434065063990,IceCadet,NAL-USIABP,ICE-PPR<br>DiskoBay,North
2021-08-20T10:34:01Z,1629455642,2021,10,34,232.4403,232.4403,69.42548,-51.80279,996.77,0.0,-999.0,yes,yes,no,300434065063990,IceCadet,NAL-USIABP,ICE-PPR<br>DiskoBay,North
2021-08-20T11:33:56Z,1629459236,2021,11,34,232.4819,232.4819,69.42522,-51.80266,998.28,0.0,-999.0,yes,yes,no,300434065063990,IceCadet,NAL-USIABP,ICE-PPR<br>DiskoBay,North
2021-08-20T12:33:59Z,1629462839,2021,12,34,232.5236,232.5236,69.42564,-51.80403,999.42,0.0,-999.0,yes,yes,no,300434065063990,IceCadet,NAL-USIABP,ICE-PPR<br>DiskoBay,North
2021-08-20T13:34:01Z,1629466442,2021,13,34,232.5653,232.5653,69.42521,-51.80633,1000.82,0.0,-999.0,yes,yes,no,300434065063990,IceCadet,NAL-USIABP,ICE-PPR<br>DiskoBay,North
2021-08-20T14:33:56Z,1629470036,2021,14,34,232.6069,232.6069,69.42502,-51.80263,1004.92,0.0,-999.0,yes,yes,no,300434065063990,IceCadet,NAL-USIABP,ICE-PPR<br>DiskoBay,North
2021-08-20T15:33:59Z,1629473639,2021,15,34,232.6486,232.6486,69.42469,-51.80214,1006.43,0.0,-999.0,yes,yes,no,300434065063990,IceCadet,NAL-USIABP,ICE-PPR<br>DiskoBay,North
2021-08-20T16:34:01Z,1629477242,2021,16,34,232.6903,232.6903,69.42421,-51.8015,1005.8,0.0,-999.0,yes,yes,no,300434065063990,IceCadet,NAL-USIABP,ICE-PPR<br>DiskoBay,North
2021-08-20T17:33:56Z,1629480836,2021,17,34,232.7319,232.7319,69.42466,-51.80176,1006.12,0.0,-999.0,yes,yes,no,300434065063990,IceCadet,NAL-USIABP,ICE-PPR<br>DiskoBay,North
2021-08-20T18:34:59Z,1629484500,2021,18,35,232.7743,232.7743,69.42471,-51.80184,1004.45,0.0,-999.0,yes,yes,no,300434065063990,IceCadet,NAL-USIABP,ICE-PPR<br>DiskoBay,North
2021-08-20T19:34:01Z,1629488042,2021,19,34,232.8153,232.8153,69.42472,-51.80183,1003.99,0.0,-999.0,yes,yes,no,300434065063990,IceCadet,NAL-USIABP,ICE-PPR<br>DiskoBay,North
2021-08-20T20:33:56Z,1629491636,2021,20,34,232.8569,232.8569,69.42471,-51.80122,1001.8,0.0,-999.0,yes,yes,no,300434065063990,IceCadet,NAL-USIABP,ICE-PPR<br>DiskoBay,North
2021-08-20T21:33:59Z,1629495239,2021,21,34,232.8986,232.8986,69.42483,-51.80203,997.72,0.0,-999.0,yes,yes,no,300434065063990,IceCadet,NAL-USIABP,ICE-PPR<br>DiskoBay,North
2021-08-20T22:35:02Z,1629498902,2021,22,35,232.941,232.941,69.4261,-51.80152,992.48,0.0,-999.0,yes,yes,no,300434065063990,IceCadet,NAL-USIABP,ICE-PPR<br>DiskoBay,North
2021-08-20T23:33:56Z,1629502436,2021,23,34,232.9819,232.9819,69.42683,-51.79989,988.94,0.0,-999.0,yes,yes,no,300434065063990,IceCadet,NAL-USIABP,ICE-PPR<br>DiskoBay,North
2021-08-21T00:33:59Z,1629506039,2021,0,34,233.0236,233.0236,69.42662,-51.79821,986.96,0.0,-999.0,yes,yes,no,300434065063990,IceCadet,NAL-USIABP,ICE-PPR<br>DiskoBay,North
2021-08-21T01:34:01Z,1629509642,2021,1,34,233.0653,233.0653,69.42616,-51.79813,987.19,0.0,-999.0,yes,yes,no,300434065063990,IceCadet,NAL-USIABP,ICE-PPR<br>DiskoBay,North
2021-08-21T02:33:56Z,1629513236,2021,2,34,233.1069,233.1069,69.42696,-51.79837,989.06,0.0,-999.0,yes,yes,no,300434065063990,IceCadet,NAL-USIABP,ICE-PPR<br>DiskoBay,North
2021-08-22T15:34:59Z,1629646500,2021,15,35,234.6493,234.6493,69.4629,-51.882,1006.16,0.0,-999.0,yes,yes,no,300434065063990,IceCadet,NAL-USIABP,ICE-PPR<br>DiskoBay,North
2021-08-22T16:34:01Z,1629650042,2021,16,34,234.6903,234.6903,69.46263,-51.88909,1007.44,0.0,-999.0,yes,yes,no,300434065063990,IceCadet,NAL-USIABP,ICE-PPR<br>DiskoBay,North
2021-08-22T17:33:56Z,1629653636,2021,17,34,234.7319,234.7319,69.46036,-51.89945,1011.27,0.0,-999.0,yes,yes,no,300434065063990,IceCadet,NAL-USIABP,ICE-PPR<br>DiskoBay,North
2021-08-22T18:33:59Z,1629657239,2021,18,34,234.7736,234.7736,69.4575,-51.90987,1010.81,0.0,-999.0,yes,yes,no,300434065063990,IceCadet,NAL-USIABP,ICE-PPR<br>DiskoBay,North
2021-08-22T19:34:01Z,1629660842,2021,19,34,234.8153,234.8153,69.45402,-51.9221,1008.95,0.0,-999.0,yes,yes,no,300434065063990,IceCadet,NAL-USIABP,ICE-PPR<br>DiskoBay,North
2021-08-22T20:34:56Z,1629664497,2021,20,35,234.8576,234.8576,69.45128,-51.93341,1004.87,0.0,-999.0,yes,yes,no,300434065063990,IceCadet,NAL-USIABP,ICE-PPR<br>DiskoBay,North
2021-08-22T21:33:59Z,1629668039,2021,21,34,234.8986,234.8986,69.44939,-51.94182,999.8,0.0,-999.0,yes,yes,no,300434065063990,IceCadet,NAL-USIABP,ICE-PPR<br>DiskoBay,North
2021-08-22T22:34:01Z,1629671642,2021,22,34,234.9403,234.9403,69.44805,-51.94729,993.86,0.0,-999.0,yes,yes,no,300434065063990,IceCadet,NAL-USIABP,ICE-PPR<br>DiskoBay,North
2021-08-22T23:33:04Z,1629675184,2021,23,33,234.9813,234.9813,69.44762,-51.94954,990.15,0.0,-999.0,yes,yes,no,300434065063990,IceCadet,NAL-USIABP,ICE-PPR<br>DiskoBay,North
2021-08-23T00:33:59Z,1629678839,2021,0,34,235.0236,235.0236,69.44762,-51.94854,989.79,0.0,-999.0,yes,yes,no,300434065063990,IceCadet,NAL-USIABP,ICE-PPR<br>DiskoBay,North
2021-08-23T01:34:01Z,1629682442,2021,1,34,235.0653,235.0653,69.44787,-51.94614,991.26,0.0,-999.0,yes,yes,no,300434065063990,IceCadet,NAL-USIABP,ICE-PPR<br>DiskoBay,North
2021-08-23T02:33:56Z,1629686036,2021,2,34,235.1069,235.1069,69.44838,-51.94294,993.53,0.0,-999.0,yes,yes,no,300434065063990,IceCadet,NAL-USIABP,ICE-PPR<br>DiskoBay,North
2021-08-23T03:34:59Z,1629689700,2021,3,35,235.1493,235.1493,69.449,-51.94257,993.0,0.0,-999.0,yes,yes,no,300434065063990,IceCadet,NAL-USIABP,ICE-PPR<br>DiskoBay,North
2021-08-23T04:34:01Z,1629693242,2021,4,34,235.1903,235.1903,69.44854,-51.94039,992.42,0.0,-999.0,yes,yes,no,300434065063990,IceCadet,NAL-USIABP,ICE-PPR<br>DiskoBay,North
2021-08-23T05:33:56Z,1629696836,2021,5,34,235.2319,235.2319,69.44819,-51.94782,992.53,0.0,-999.0,yes,yes,no,300434065063990,IceCadet,NAL-USIABP,ICE-PPR<br>DiskoBay,North
2021-08-23T06:33:59Z,1629700439,2021,6,34,235.2736,235.2736,69.44591,-51.95441,991.19,0.0,-999.0,yes,yes,no,300434065063990,IceCadet,NAL-USIABP,ICE-PPR<br>DiskoBay,North
2021-08-23T07:34:01Z,1629704042,2021,7,34,235.3153,235.3153,69.44295,-51.96328,990.2,0.0,-999.0,yes,yes,no,300434065063990,IceCadet,NAL-USIABP,ICE-PPR<br>DiskoBay,North
2021-08-23T08:33:56Z,1629707636,2021,8,34,235.3569,235.3569,69.4396,-51.9735,990.42,0.0,-999.0,yes,yes,no,300434065063990,IceCadet,NAL-USIABP,ICE-PPR<br>DiskoBay,North
2021-08-23T09:33:59Z,1629711239,2021,9,34,235.3986,235.3986,69.43632,-51.98265,990.49,0.0,-999.0,yes,yes,no,300434065063990,IceCadet,NAL-USIABP,ICE-PPR<br>DiskoBay,North
2021-08-23T10:34:01Z,1629714842,2021,10,34,235.4403,235.4403,69.43391,-51.99082,992.49,0.0,-999.0,yes,yes,no,300434065063990,IceCadet,NAL-USIABP,ICE-PPR<br>DiskoBay,North
2021-08-23T11:33:56Z,1629718436,2021,11,34,235.4819,235.4819,69.43222,-51.99719,999.16,0.0,-999.0,yes,yes,no,300434065063990,IceCadet,NAL-USIABP,ICE-PPR<br>DiskoBay,North
2021-08-23T12:33:59Z,1629722039,2021,12,34,235.5236,235.5236,69.43259,-52.00179,1005.49,0.0,-999.0,yes,yes,no,300434065063990,IceCadet,NAL-USIABP,ICE-PPR<br>DiskoBay,North
2021-08-23T13:34:01Z,1629725642,2021,13,34,235.5653,235.5653,69.4333,-52.0042,1011.4,0.0,-999.0,yes,yes,no,300434065063990,IceCadet,NAL-USIABP,ICE-PPR<br>DiskoBay,North
2021-08-23T14:33:56Z,1629729236,2021,14,34,235.6069,235.6069,69.4322,-52.00494,1014.65,0.0,-999.0,yes,yes,no,300434065063990,IceCadet,NAL-USIABP,ICE-PPR<br>DiskoBay,North
2021-08-23T15:34:59Z,1629732900,2021,15,35,235.6493,235.6493,69.43378,-52.00768,1013.4,0.0,-999.0,yes,yes,no,300434065063990,IceCadet,NAL-USIABP,ICE-PPR<br>DiskoBay,North
2021-08-23T16:34:01Z,1629736442,2021,16,34,235.6903,235.6903,69.43385,-52.01278,1010.77,0.0,-999.0,yes,yes,no,300434065063990,IceCadet,NAL-USIABP,ICE-PPR<br>DiskoBay,North
2021-08-23T17:33:56Z,1629740036,2021,17,34,235.7319,235.7319,69.43278,-52.01937,1009.85,0.0,-999.0,yes,yes,no,300434065063990,IceCadet,NAL-USIABP,ICE-PPR<br>DiskoBay,North
2021-08-23T18:34:59Z,1629743700,2021,18,35,235.7743,235.7743,69.43119,-52.02649,1007.44,0.0,-999.0,yes,yes,no,300434065063990,IceCadet,NAL-USIABP,ICE-PPR<br>DiskoBay,North
2021-08-23T19:34:01Z,1629747242,2021,19,34,235.8153,235.8153,69.42996,-52.03565,1004.84,0.0,-999.0,yes,yes,no,300434065063990,IceCadet,NAL-USIABP,ICE-PPR<br>DiskoBay,North
2021-08-23T20:33:56Z,1629750836,2021,20,34,235.8569,235.8569,69.42861,-52.04472,1007.48,0.0,-999.0,yes,yes,no,300434065063990,IceCadet,NAL-USIABP,ICE-PPR<br>DiskoBay,North
2021-08-23T21:33:59Z,1629754439,2021,21,34,235.8986,235.8986,69.42746,-52.05224,1002.52,0.0,-999.0,yes,yes,no,300434065063990,IceCadet,NAL-USIABP,ICE-PPR<br>DiskoBay,North
2021-08-23T22:34:01Z,1629758042,2021,22,34,235.9403,235.9403,69.4257,-52.05801,1000.61,0.0,-999.0,yes,yes,no,300434065063990,IceCadet,NAL-USIABP,ICE-PPR<br>DiskoBay,North
2021-08-23T23:33:56Z,1629761636,2021,23,34,235.9819,235.9819,69.42543,-52.06153,1000.66,0.0,-999.0,yes,yes,no,300434065063990,IceCadet,NAL-USIABP,ICE-PPR<br>DiskoBay,North
2021-08-24T00:34:59Z,1629765300,2021,0,35,236.0243,236.0243,69.42564,-52.06422,1002.8,0.0,-999.0,yes,yes,no,300434065063990,IceCadet,NAL-USIABP,ICE-PPR<br>DiskoBay,North
2021-08-24T01:34:01Z,1629768842,2021,1,34,236.0653,236.0653,69.42497,-52.06648,1003.63,0.0,-999.0,yes,yes,no,300434065063990,IceCadet,NAL-USIABP,ICE-PPR<br>DiskoBay,North
2021-08-24T02:34:56Z,1629772497,2021,2,35,236.1076,236.1076,69.42423,-52.06878,1003.72,0.0,-999.0,yes,yes,no,300434065063990,IceCadet,NAL-USIABP,ICE-PPR<br>DiskoBay,North
2021-08-24T03:33:59Z,1629776039,2021,3,34,236.1486,236.1486,69.42329,-52.07214,1003.29,0.0,-999.0,yes,yes,no,300434065063990,IceCadet,NAL-USIABP,ICE-PPR<br>DiskoBay,North
2021-08-24T04:35:02Z,1629779702,2021,4,35,236.191,236.191,69.42229,-52.0774,1002.08,0.0,-999.0,yes,yes,no,300434065063990,IceCadet,NAL-USIABP,ICE-PPR<br>DiskoBay,North
2021-08-24T05:33:56Z,1629783236,2021,5,34,236.2319,236.2319,69.42114,-52.08462,999.77,0.0,-999.0,yes,yes,no,300434065063990,IceCadet,NAL-USIABP,ICE-PPR<br>DiskoBay,North
2021-08-24T06:33:59Z,1629786839,2021,6,34,236.2736,236.2736,69.41936,-52.09407,1000.39,0.0,-999.0,yes,yes,no,300434065063990,IceCadet,NAL-USIABP,ICE-PPR<br>DiskoBay,North
2021-08-24T07:34:01Z,1629790442,2021,7,34,236.3153,236.3153,69.41715,-52.10701,998.71,0.0,-999.0,yes,yes,no,300434065063990,IceCadet,NAL-USIABP,ICE-PPR<br>DiskoBay,North
2021-08-24T08:33:56Z,1629794036,2021,8,34,236.3569,236.3569,69.41437,-52.1205,997.6,0.0,-999.0,yes,yes,no,300434065063990,IceCadet,NAL-USIABP,ICE-PPR<br>DiskoBay,North
2021-08-24T09:33:59Z,1629797639,2021,9,34,236.3986,236.3986,69.41119,-52.13237,1000.42,0.0,-999.0,yes,yes,no,300434065063990,IceCadet,NAL-USIABP,ICE-PPR<br>DiskoBay,North
2021-08-24T10:35:02Z,1629801302,2021,10,35,236.441,236.441,69.40884,-52.14349,1003.47,0.0,-999.0,yes,yes,no,300434065063990,IceCadet,NAL-USIABP,ICE-PPR<br>DiskoBay,North
2021-08-24T11:33:56Z,1629804836,2021,11,34,236.4819,236.4819,69.40688,-52.15383,999.97,0.0,-999.0,yes,yes,no,300434065063990,IceCadet,NAL-USIABP,ICE-PPR<br>DiskoBay,North
2021-08-24T12:33:59Z,1629808439,2021,12,34,236.5236,236.5236,69.40516,-52.15892,1005.49,0.0,-999.0,yes,yes,no,300434065063990,IceCadet,NAL-USIABP,ICE-PPR<br>DiskoBay,North
2021-08-24T13:34:01Z,1629812042,2021,13,34,236.5653,236.5653,69.40457,-52.1611,1009.86,0.0,-999.0,yes,yes,no,300434065063990,IceCadet,NAL-USIABP,ICE-PPR<br>DiskoBay,North
2021-08-24T14:33:56Z,1629815636,2021,14,34,236.6069,236.6069,69.40411,-52.16249,1013.86,0.0,-999.0,yes,yes,no,300434065063990,IceCadet,NAL-USIABP,ICE-PPR<br>DiskoBay,North